This demonstration page uses our WeatherBlox Daily Observations layout. Learn more.

38.88101, -77.10428

Hourly Observations for August 4, 2016

Temp ( °F °C ) Dew Point ( °F °C ) Humidity (%) Winds ( mph kmh ) Pressure ( in mb ) Visibility ( mi km ) Precip ( " mm )
12:52 am 00:52 Clear 73 22.8 64 17.8 74 74 SE 5 7 30.15 1021 10 16.09344 0 0
1:52 am 01:52 Clear 73 22.8 65 18.3 76 76 ENE 3 6 30.12 1020 10 16.09344 0 0
2:52 am 02:52 Clear 72 22.2 65 18.3 79 79 ENE 6 9 30.12 1020 10 16.09344 0 0
3:52 am 03:52 Clear 72 22.2 65 18.3 79 79 ENE 6 9 30.12 1020 10 16.09344 0 0
4:52 am 04:52 Clear 71 21.7 65 18.3 81 81 NNE 7 11 30.12 1020 10 16.09344 0 0
5:52 am 05:52 Partly Cloudy 71 21.7 65 18.3 81 81 NE 3 6 30.12 1020 10 16.09344 0 0
6:52 am 06:52 Partly Cloudy 71 21.7 66 18.9 84 84 ENE 6 9 30.15 1021 10 16.09344 0 0
7:52 am 07:52 Partly Cloudy 73 22.8 66 18.9 79 79 ENE 9 15 30.15 1021 10 16.09344 0 0
8:52 am 08:52 Mostly Cloudy 77 25 66 18.9 69 69 ENE 6 9 30.15 1021 10 16.09344 0 0
9:52 am 09:52 Mostly Cloudy 77 25 64 17.8 64 64 ESE 8 13 30.15 1021 10 16.09344 0 0
10:52 am 10:52 Mostly Cloudy 80 26.7 63 17.2 56 56 E 8 13 30.15 1021 10 16.09344 0 0
11:52 am 11:52 Mostly Cloudy 79 26.1 63 17.2 58 58 N 3 6 30.15 1021 10 16.09344 0 0
12:52 pm 12:52 Mostly Cloudy 83 28.3 62 16.7 49 49 E 6 9 30.12 1020 10 16.09344 0 0
1:52 pm 13:52 Mostly Cloudy 85 29.4 61 16.1 45 45 ESE 8 13 30.12 1020 10 16.09344 0 0
2:52 pm 14:52 Mostly Cloudy 85 29.4 61 16.1 45 45 E 8 13 30.12 1020 10 16.09344 0 0
3:52 pm 15:52 Mostly Cloudy 85 29.4 59 15 42 42 ESE 3 6 30.12 1020 10 16.09344 0 0
4:52 pm 16:52 Mostly Cloudy 85 29.4 62 16.7 46 46 SSE 8 13 30.09 1019 10 16.09344 0 0
5:52 pm 17:52 Mostly Cloudy 83 28.3 61 16.1 48 48 SE 9 15 30.09 1019 10 16.09344 0 0
6:52 pm 18:52 Mostly Cloudy 82 27.8 62 16.7 51 51 SSE 9 15 30.09 1019 10 16.09344 0 0
7:52 pm 19:52 Partly Cloudy 80 26.7 62 16.7 54 54 SSE 7 11 30.06 1018 10 16.09344 0 0
8:52 pm 20:52 Partly Cloudy 79 26.1 64 17.8 60 60 SE 5 7 30.09 1019 10 16.09344 0 0
9:52 pm 21:52 Partly Cloudy 78 25.6 65 18.3 64 64 SE 8 13 30.09 1019 10 16.09344 0 0
10:52 pm 22:52 Partly Cloudy 77 25 65 18.3 66 66 SE 6 9 30.09 1019 10 16.09344 0 0
11:52 pm 23:52 Partly Cloudy 76 24.4 67 19.4 74 74 SSE 9 15 30.09 1019 10 16.09344 0 0

Powered by AerisWeather